Hourly Data Report for June 10, 2018

OTTAWA INTL A
ONTARIO
Current Station Operator: NAVCAN

45°19'00.000" N
75°40'00.000" W
114.90 m
6106001
71628
YOW

Download Data

Hourly Data (June 2018)
Hourly Data Report for June 10, 2018
TIME
LST
Temp Definition
°C
Dew Point Definition
°C
Rel Hum Definition
%
Precip. Amount Definition
mm

Wind Dir Definition
10's deg

Wind Spd Definition
km/h
Visibility Definition
km
Stn Press Definition
kPa
Hmdx Definition


Wind Chill Definition


Weather Definition


00:00 11.2 4.4 63   30 6 24.1 100.67     LegendNANA
01:00 8.0 4.5 78   28 3 24.1 100.67     Mainly Clear
02:00 10.8 4.5 65   31 10 24.1 100.69     LegendNANA
03:00 11.7 6.1 69   33 4 24.1 100.68     LegendNANA
04:00 8.2 6.5 89   32 8 24.1 100.70     Mainly Clear
05:00 11.8 6.4 69   36 10 24.1 100.72     LegendNANA
06:00 13.3 5.3 58   2 9 24.1 100.74     LegendNANA
07:00 15.1 2.3 42   3 17 24.1 100.76     Mainly Clear
08:00 16.3 3.5 42   5 15 24.1 100.77     LegendNANA
09:00 17.9 2.9 36   1 10 24.1 100.76     LegendNANA
10:00 18.5 1.5 32   36 13 24.1 100.73     Mainly Clear
11:00 19.3 -0.1 27   1 7 24.1 100.71     LegendNANA
12:00 19.6 -1.0 25   33 7 24.1 100.63     LegendNANA
13:00 21.2 1.2 26   36 15 24.1 100.58     Mostly Cloudy
14:00 21.7 2.6 28   2 5 24.1 100.52     LegendNANA
15:00 21.5 -0.1 23   1 10 24.1 100.48     LegendNANA
16:00 21.7 1.7 26   2 7 24.1 100.44     Mainly Clear
17:00 21.4 1.9 27   35 16 24.1 100.40     LegendNANA
18:00 20.7 3.4 32   35 11 24.1 100.37     LegendNANA
19:00 19.8 2.2 31   35 11 24.1 100.38     Clear
20:00 18.1 2.3 34   35 11 24.1 100.39     LegendNANA
21:00 16.1 4.6 46   4 10 24.1 100.44     LegendNANA
22:00 15.4 4.4 48   3 8 24.1 100.44     Clear
23:00 14.5 3.7 48   2 13 24.1 100.46     LegendNANA

Notes on Data Quality.

Legend

  • E = Estimated
  • M = Missing
  • NA = Not Available*
  • [empty] = Indicates an unobserved value
Date modified: